This demonstration page uses our WeatherBlox Daily Observations layout. Learn more.

Left ArrowRight Arrow

39.08367, -84.50855

Hourly Observations for July 28, 2017

Temp ( °F °C ) Dew Point ( °F °C ) Humidity (%) Winds ( mph kmh ) Pressure ( in mb ) Visibility ( mi km ) Precip ( " mm )
12:53 am 00:53 Cloudy 73 22.8 73 22.8 100 100 N N/A 29.85 1011 7 11.26538 N/A
1:50 am 01:50 Cloudy 73 23 73 23 100 100 N N/A 29.85 1011 8 12.87472 N/A
1:53 am 01:53 Cloudy 73 22.8 73 22.8 100 100 N N/A 29.85 1011 7 11.26538 N/A
2:13 am 02:13 Cloudy with Mist and Fog 73 22.8 73 22.8 100 100 N N/A 29.85 1011 6 9.65604 N/A
2:53 am 02:53 Cloudy 73 22.8 73 22.8 100 100 N N/A 29.84 1010 7 11.26538 N/A
3:12 am 03:12 Cloudy with Mist and Fog 73 22.8 73 22.8 100 100 N N/A 29.85 1011 6 9.65604 N/A
3:27 am 03:27 Cloudy 73 22.8 73 22.8 100 100 N N/A 29.85 1011 8 12.87472 N/A
3:53 am 03:53 Cloudy 73 22.8 73 22.8 100 100 N N/A 29.83 1010 8 12.87472 N/A
5:53 am 05:53 Cloudy with Light Rain 74 23.3 74 23.3 100 100 NE 5 7 29.82 1010 9 14.48406 N/A
6:11 am 06:11 Cloudy with Rain 74 23.3 74 23.3 100 100 E 3 6 29.83 1010 6 9.65604 N/A
6:21 am 06:21 Cloudy with Rain 74 23.3 74 23.3 100 100 NE 3 6 29.83 1010 5 8.0467 0.01 0.254
6:31 am 06:31 Cloudy with Rain 74 23.3 74 23.3 100 100 NNE 3 6 29.83 1010 5 8.0467 0.01 0.254
6:41 am 06:41 Cloudy with Light Rain 74 23.3 74 23.3 100 100 NE 7 11 29.83 1010 7 11.26538 0.02 0.508
6:53 am 06:53 Cloudy with Light Rain 74 23.3 73 22.8 97 97 NE 7 11 29.83 1010 10 16.0934 0.02 0.508
7:53 am 07:53 Cloudy with Light Rain 73 22.8 72 22.2 96 96 NE 7 11 29.82 1010 10 16.0934 0.03 0.762
7:59 am 07:59 Cloudy with Light Thunderstorms 73 22.8 72 22.2 96 96 NE 6 9 29.83 1010 10 16.0934 N/A
8:25 am 08:25 Cloudy with Light Thunderstorms 72 22.2 72 22.2 100 100 N N/A 29.85 1011 10 16.0934 N/A
8:44 am 08:44 Cloudy with Thunderstorms 72 22.2 71 21.7 97 97 ENE 8 13 29.85 1011 5 8.0467 0.01 0.254
8:53 am 08:53 Cloudy with Light Rain 72 22.2 71 21.7 97 97 ENE 5 7 29.85 1011 5 8.0467 0.01 0.254
9:05 am 09:05 Cloudy with Light Rain 72 22.2 71 21.7 97 97 ENE 6 9 29.85 1011 5 8.0467 N/A
9:53 am 09:53 Cloudy 73 22.8 71 21.7 94 94 NE 5 7 29.84 1011 10 16.0934 N/A
10:53 am 10:53 Cloudy with Light Rain 73 22.8 72 22.2 96 96 NE 3 6 29.84 1011 8 12.87472 0.01 0.254
11:53 am 11:53 Mostly Cloudy 75 23.9 72 22.2 90 90 NE 6 9 29.83 1010 9 14.48406 0.02 0.508
2:53 pm 14:53 Partly Cloudy 83 28.3 70 21.1 65 65 NE 10 17 29.8 1009 10 16.0934 N/A
3:53 pm 15:53 Mostly Cloudy 84 28.9 70 21.1 63 63 N 14 22 29.8 1009 10 16.0934 N/A
4:53 pm 16:53 Sunny 84 28.9 69 20.6 61 61 N 14 22 29.78 1009 10 16.0934 N/A
5:53 pm 17:53 Mostly Sunny 84 28.9 67 19.4 57 57 N 17 28 29.78 1009 10 16.0934 N/A
6:53 pm 18:53 Mostly Sunny 81 27.2 66 18.9 61 61 N 16 26 29.79 1009 10 16.0934 N/A
7:53 pm 19:53 Mostly Sunny 79 26.1 66 18.9 65 65 N 10 17 29.81 1010 10 16.0934 N/A
8:53 pm 20:53 Partly Cloudy 77 25 66 18.9 69 69 N 12 19 29.83 1010 10 16.0934 N/A
9:53 pm 21:53 Mostly Clear 74 23.3 65 18.3 74 74 NNE 12 19 29.85 1011 10 16.0934 N/A
10:53 pm 22:53 Clear 72 22.2 64 17.8 76 76 NNE 9 15 29.88 1012 10 16.0934 N/A
11:53 pm 23:53 Clear 70 21.1 63 17.2 79 79 NNE 8 13 29.89 1012 10 16.0934 N/A

Powered by AerisWeather